Powrót do katalogu

SL-12 DEB

AktywnyUNKNOWN
NORAD 36882·DEBRIS·🇷🇺 Russia

Wystrzelony Jan 10, 1989 z Baikonur Cosmodrome

Loading…

Następne Przeloty (najbliższe 24 godziny)

TLE

ŚwieżeSource: Space-Track

Epoka: Sep 13, 2026, 01:35 UTC

1 36882U 89001V   26256.06607763 -.00004132  00000-0 -22269-1 0  9995
2 36882  64.9016 242.2152 1847018  51.9992 323.3748 10.24768470565271

Śledź SL-12 DEB w czasie rzeczywistym z AllMySat

Download on the App Store